{"data":{"norad_id":64922,"intl_designator":"2025-157U","name":"STARLINK-34700","alt_names":[],"object_type":"PAYLOAD","status":"ACTIVE","operator":null,"country":"US","launch_date":"2025-07-26","launch_site_code":"AFETR","launch_vehicle":null,"mission":null,"orbit_class":"UNKNOWN","rcs_meters":null,"size_class":null,"mass_kg":null,"dimensions":null,"purposes":["comms"],"wikipedia_slug":null,"has_3d_model":false,"image_url":null,"decayed_at":null,"tle_current":{"epoch":"2026-09-20T23:33:37.281600Z","epoch_age_seconds":82622,"freshness":"FRESH","line1":"1 64922U 25157U   26263.98168150  .00023140  00000+0  69373-3 0  9990","line2":"2 64922  53.1555 155.7337 0001349  96.1480 263.9676 15.34406984 66011","mean_motion":15.34406984,"eccentricity":0.0001349,"inclination_deg":53.1555,"raan_deg":155.7337,"arg_perigee_deg":96.148,"mean_anomaly_deg":263.9676,"bstar":0.00069373,"rev_number":6601,"period_min":93.847330924297,"perigee_km":461.75965581786,"apogee_km":463.6053089142,"semimajor_km":6840.819482366,"source":"CELESTRAK","updated_at":"2026-09-21T09:00:35.483375Z"}}}